FW2284 Weather Reports


Display with metric or nautical units.
time (UTC)temp
F
wind
direction
speed
MPH
gust
MPH
rain 1hr
in
rain 24hr
in
rain mn
in
humidity
%
barometer
mb
20260509141515 61 206 3.0 6.0 0.00 0.36 0.00 89 1009.4
20260509140004 59 235 3.0 7.0 0.00 0.36 0.00 89 1009.2
20260509134501 58 217 3.0 8.0 0.00 0.36 0.00 91 1009.1
20260509133107 57 195 2.0 5.0 0.00 0.36 0.00 93 1009.0
20260509131556 56 264 1.0 5.0 0.00 0.36 0.00 94 1009.0
20260509130100 56 217 2.0 8.0 0.00 0.36 0.00 95 1009.2
20260509124552 56 262 1.0 5.0 0.00 0.36 0.00 96 1009.2
20260509123049 55 213 2.0 6.0 0.00 0.36 0.00 96 1009.0
20260509121552 55 209 1.0 6.0 0.00 0.36 0.00 96 1009.0
20260509120048 55 212 1.0 6.0 0.00 0.36 0.00 96 1008.8
20260509114549 55 217 2.0 6.0 0.00 0.36 0.00 96 1008.8
20260509113014 55 256 2.0 8.0 0.00 0.36 0.00 96 1008.7
20260509111514 55 257 2.0 6.0 0.00 0.36 0.00 96 1008.8
20260509110012 55 250 2.0 8.0 0.00 0.36 0.00 97 1008.7
20260509104511 55 248 2.0 6.0 0.00 0.36 0.00 97 1008.6
20260509103008 55 285 3.0 8.0 0.00 0.36 0.00 97 1008.5
20260509101513 54 205 3.0 8.0 0.00 0.36 0.00 97 1008.6
20260509100007 54 214 2.0 9.0 0.00 0.36 0.00 96 1008.3
20260509094504 54 233 3.0 9.0 0.00 0.36 0.00 96 1008.2
20260509093002 54 223 2.0 7.0 0.00 0.36 0.00 96 1008.2
20260509091502 55 214 3.0 6.0 0.00 0.36 0.00 96 1008.1
20260509090001 55 215 0.0 3.0 0.00 0.36 0.00 96 1008.1
20260509084501 55 219 1.0 7.0 0.00 0.36 0.00 96 1008.2
20260509083100 55 218 2.0 7.0 0.00 0.36 0.00 96 1008.1
20260509081659 55 205 2.0 6.0 0.00 0.36 0.00 96 1008.1
20260509074603 55 215 3.0 6.0 0.00 0.36 0.00 96 1008.1
20260509073059 54 200 1.0 7.0 0.00 0.36 0.00 96 1008.1
20260509071600 53 148 0.0 2.0 0.00 0.36 0.00 96 1008.3
20260509070104 52 255 0.0 0.0 0.00 0.36 0.00 95 1008.2
20260509064552 53 255 0.0 0.0 0.00 0.36 0.00 95 1008.2
20260509063105 54 255 0.0 0.0 0.00 0.36 0.00 95 1008.4
20260509061611 55 255 0.0 1.0 0.00 0.36 0.00 95 1008.3
20260509060056 55 191 1.0 2.0 0.00 0.36 0.00 95 1008.0
20260509054546 55 202 1.0 2.0 0.00 0.36 0.00 95 1008.0
20260509053043 55 153 1.0 4.0 0.00 0.36 0.00 95 1008.0
20260509051542 55 197 1.0 4.0 0.00 0.36 0.00 95 1008.1
20260509050042 55 156 1.0 3.0 0.00 0.36 0.36 94 1008.0
20260509044540 55 125 1.0 2.0 0.01 0.36 0.36 94 1008.0
20260509043039 56 173 0.0 2.0 0.01 0.36 0.36 94 1008.3
20260509041539 56 132 0.0 1.0 0.01 0.36 0.36 94 1008.5
20260509040037 56 185 1.0 3.0 0.02 0.36 0.36 94 1008.3
20260509034537 56 189 2.0 3.0 0.04 0.35 0.35 93 1008.6
20260509033037 56 174 0.0 2.0 0.09 0.35 0.35 93 1008.7
20260509031537 57 109 1.0 3.0 0.14 0.35 0.35 93 1008.6
20260509030041 57 325 0.0 3.0 0.21 0.34 0.34 93 1009.1
20260509024538 57 14 0.0 4.0 0.25 0.31 0.31 92 1009.2
20260509023034 57 318 1.0 6.0 0.23 0.26 0.26 93 1009.4
20260509021533 57 333 2.0 6.0 0.20 0.21 0.21 93 1009.5
20260509020047 58 349 2.0 11.0 0.12 0.13 0.13 92 1009.6
20260509014543 58 319 2.0 5.0 0.05 0.06 0.06 92 1009.2
20260509013037 58 329 1.0 2.0 0.02 0.03 0.03 92 1008.9
20260509011530 58 330 0.0 1.0 0.00 0.01 0.01 91 1008.6
20260509010029 58 342 0.0 1.0 0.00 0.01 0.01 89 1008.0
20260509004528 59 342 0.0 1.0 0.01 0.01 0.01 88 1007.9
20260509003037 59 8 0.0 4.0 0.01 0.01 0.01 86 1008.4
20260509001526 60 325 3.0 8.0 0.01 0.01 0.01 84 1008.7
20260509000024 62 357 1.0 9.0 0.01 0.01 0.01 80 1008.5
20260508234523 64 323 2.0 7.0 0.00 0.00 0.00 73 1008.5
20260508233022 66 13 0.0 4.0 0.00 0.00 0.00 66 1008.5
20260508231522 67 321 2.0 7.0 0.00 0.00 0.00 64 1008.5
20260508230021 68 336 1.0 4.0 0.00 0.00 0.00 62 1008.4
20260508224520 69 337 1.0 4.0 0.00 0.00 0.00 61 1008.5
20260508223023 69 352 2.0 5.0 0.00 0.00 0.00 57 1008.3
20260508221519 70 312 1.0 6.0 0.00 0.00 0.00 58 1008.0
20260508220017 70 336 3.0 7.0 0.00 0.00 0.00 55 1008.3
20260508214518 70 320 3.0 8.0 0.00 0.00 0.00 54 1008.5
20260508213015 71 297 2.0 7.0 0.00 0.00 0.00 53 1008.7
20260508211516 71 238 2.0 8.0 0.00 0.00 0.00 54 1008.8
20260508210011 72 249 2.0 7.0 0.00 0.00 0.00 53 1009.1
20260508204510 71 300 3.0 10.0 0.00 0.00 0.00 52 1009.6
20260508203008 71 277 3.0 9.0 0.00 0.00 0.00 51 1009.6
20260508201507 71 305 4.0 9.0 0.00 0.00 0.00 50 1009.9
20260508200007 72 317 5.0 9.0 0.00 0.00 0.00 49 1009.9
20260508194507 71 229 7.0 12.0 0.00 0.00 0.00 48 1009.8
20260508193005 72 257 4.0 8.0 0.00 0.00 0.00 53 1009.8
20260508191510 72 320 6.0 14.0 0.00 0.00 0.00 49 1009.8
20260508190009 72 285 6.0 14.0 0.00 0.00 0.00 49 1009.8
20260508184502 72 236 3.0 7.0 0.00 0.00 0.00 55 1009.7
20260508183057 70 278 5.0 11.0 0.00 0.00 0.00 52 1009.9
20260508181559 69 214 3.0 10.0 0.00 0.00 0.00 56 1010.0
20260508180053 69 136 3.0 7.0 0.00 0.00 0.00 59 1010.1
20260508174557 67 215 3.0 7.0 0.00 0.00 0.00 58 1010.4
20260508173045 66 250 2.0 7.0 0.00 0.00 0.00 60 1010.8
20260508171543 66 208 4.0 12.0 0.00 0.00 0.00 60 1011.1
20260508170039 65 233 3.0 8.0 0.00 0.00 0.00 58 1011.4
20260508164537 64 217 3.0 7.0 0.00 0.00 0.00 62 1011.7
20260508163036 64 262 2.0 9.0 0.00 0.00 0.00 62 1011.8
20260508161533 63 234 5.0 10.0 0.00 0.00 0.00 62 1011.9
20260508160029 62 269 3.0 13.0 0.00 0.00 0.00 63 1012.2
20260508154528 62 158 3.0 11.0 0.00 0.00 0.00 62 1012.0
20260508153026 61 231 4.0 9.0 0.00 0.00 0.00 62 1012.0
20260508151529 61 160 5.0 12.0 0.00 0.00 0.00 63 1011.9
20260508150031 61 214 5.0 11.0 0.00 0.00 0.00 62 1012.1
20260508144522 61 202 7.0 13.0 0.00 0.00 0.00 63 1012.2
20260508143021 60 240 5.0 14.0 0.00 0.00 0.00 65 1012.5